Weather in Bol'shoe Isakovo

Russia / Kaliningrad Oblast     54°43′05″N   20°36′31″E
temp.,
°C
wind,
m/s
gust,
m/s
humid.,
%
clouds,
%
prec.,
mm/h
press.,
hPa
HPBL,
m
24 july, sat
sat2423:00+16nw22935 0.0 101624
02:00+16n23935 0.0 101736
05:00+14ne22875 0.0 101624
08:00+19ne34693 0.0 1017638
11:00+21nne33561 0.0 1017951
14:00+23nne424913 0.0 10171160
17:00+21nne4349100 0.0 1017700
20:00+18nne346850 0.0 101688
25 july, sun
sun2523:00+15ene22824 0.0 101720
02:00+14ese22875 0.0 101712
05:00+14ese22875 0.0 101730
08:00+20ese35705 0.0 1017320
11:00+26ese455163 0.0 10161210
14:00+28se554064 0.0 10162527
17:00+26ese344979 0.0 1015807
20:00+23e596536 0.0 1015294
26 july, mon
mon2623:00+19e41077100 0.0 1016203
02:00+18ese41074100 0.0 1015223
05:00+18ese497797 0.0 1015195
08:00+22se51160100 0.2 1016456
11:00+22e41064100 0.1 1015317
14:00+29se8104363 0.1 10141652
17:00+29se71044100 0.0 10141771
20:00+26ese6125756 0.1 1012584
27 july, tue
tue2723:00+21se41082100 0.6 1013251
02:00+19ese41093100 1.4 1012234
05:00+18sse4998100 0.8 1012244
08:00+21ssw468949 1.6 1012442
11:00+25sw4469100 0.0 1013971
14:00+26wsw565771 0.0 10131085
17:00+28wnw23506 0.0 10131182
20:00+22nw23745 0.3 101353
28 july, wed
wed2823:00+18ne11905 1.9 101311
02:00+18e11905 1.9 101311
05:00+17ese119127 0.0 101211
08:00+21se118182 0.0 1011205
11:00+25ene1165100 0.0 1010661
14:00+25nnw2270100 3.3 1009690
17:00+20ssw2491100 1.8 1010137
20:00+19ssw2290100 1.8 100936